Date String (YYYY-MM-DD hh:mm:ss) UTC,Instrument flags,Ambient pressure (hPa),Sample flow (lpm),Bypass flow (lpm),Sample temperature (°C),Ambient temperature (°C),ASC tube jacket temperature (°C),LED temperature (°C),Box temperature (°C),Sample RH (%),Span deviation,Mass concentration (μg/m³),Mass concentration (μg/m³),Mass concentration (μg/m³)
DateTimeUTC,F1_M11,P_M11,Q1_M11,Q2_M11,T1_M11,T2_M11,T3_M11,T4_M11,T5_M11,U1_M11,ZSPAN_M11,X2_M11,X0_M11,X1_M11
2022-07-12 00:00:00,,0831.7,5.00,0.00,29.6,27.3,00.0,38.3,31.4,31.4,0000.0,0009.50,0017.27,0008.21
2022-07-12 00:01:00,,0831.7,5.00,0.00,29.6,27.4,00.0,38.3,31.4,31.6,0000.0,0009.52,0017.37,0008.24
2022-07-12 00:02:00,,0831.7,5.00,0.00,29.6,27.6,00.0,38.3,31.4,31.8,0000.2,0009.51,0017.27,0008.26
2022-07-12 00:03:00,,0831.6,5.00,0.00,29.6,27.8,00.0,38.3,31.4,31.8,0000.3,0009.53,0018.12,0008.28
2022-07-12 00:04:00,,0831.7,5.00,0.00,29.6,28.0,00.0,38.3,31.5,31.9,-000.1,0009.49,0018.42,0008.27
2022-07-12 00:05:00,,0831.7,5.00,0.00,29.6,28.2,00.0,38.3,31.6,31.7,0000.2,0009.50,0017.96,0008.26
2022-07-12 00:06:00,,0831.7,5.00,0.00,29.6,28.3,00.0,38.4,31.6,31.7,0000.5,0009.51,0018.00,0008.25
2022-07-12 00:07:00,,0831.7,5.02,0.00,29.7,28.5,00.0,38.4,31.7,31.4,0000.5,0009.53,0018.18,0008.26
2022-07-12 00:08:00,,0831.7,5.01,0.00,29.7,28.6,00.0,38.4,31.7,31.3,-000.4,0009.51,0018.33,0008.29
2022-07-12 00:09:00,,0831.7,5.00,0.00,29.8,28.8,00.0,38.4,31.8,31.3,-000.1,0009.60,0019.43,0008.35
2022-07-12 00:10:00,,0831.7,5.00,0.00,29.8,28.8,00.0,38.4,31.9,31.1,0000.0,0009.71,0020.29,0008.42
2022-07-12 00:11:00,,0831.7,4.99,0.00,29.8,28.4,00.0,38.4,31.8,31.0,-000.3,0009.79,0020.72,0008.50
2022-07-12 00:12:00,,0831.7,5.00,0.00,29.8,27.7,00.0,38.3,31.6,31.1,-000.6,0009.80,0020.69,0008.55
2022-07-12 00:13:00,,0831.7,5.00,0.00,29.7,27.3,00.0,38.3,31.5,31.4,-000.2,0009.90,0020.97,0008.64
2022-07-12 00:14:00,,0831.7,5.00,0.00,29.6,27.3,00.0,38.3,31.3,31.4,0000.0,0010.00,0020.55,0008.74
2022-07-12 00:15:00,,0831.7,5.00,0.00,29.6,27.4,00.0,38.3,31.4,31.5,0000.0,0010.10,0019.84,0008.83
2022-07-12 00:16:00,,0831.7,5.00,0.00,29.6,27.6,00.0,38.3,31.4,31.6,0000.0,0010.18,0020.24,0008.91
2022-07-12 00:17:00,,0831.7,4.99,0.00,29.6,27.8,00.0,38.3,31.5,31.7,0000.0,0010.22,0020.98,0008.99
2022-07-12 00:18:00,,0831.7,5.01,0.00,29.6,28.0,00.0,38.3,31.5,31.5,0000.0,0010.28,0022.22,0009.08
2022-07-12 00:19:00,,0831.8,5.00,0.00,29.6,28.2,00.0,38.3,31.6,31.4,0000.0,0010.42,0022.66,0009.16
2022-07-12 00:20:00,,0831.7,5.00,0.00,29.7,28.4,00.0,38.4,31.7,31.5,0000.0,0010.44,0022.02,0009.20
2022-07-12 00:21:00,,0831.8,5.01,0.00,29.7,28.5,00.0,38.4,31.7,31.5,0000.0,0010.42,0021.47,0009.21
2022-07-12 00:22:00,,0831.7,5.00,0.00,29.7,28.7,00.0,38.4,31.8,31.4,0000.0,0010.41,0020.82,0009.22
2022-07-12 00:23:00,,0831.8,5.00,0.00,29.8,28.8,00.0,38.4,31.8,31.2,0000.0,0010.40,0021.71,0009.24
2022-07-12 00:24:00,,0831.7,4.99,0.00,29.8,28.6,00.0,38.4,31.8,31.3,0000.0,0010.38,0021.73,0009.25
2022-07-12 00:25:00,,0831.8,5.01,0.00,29.8,27.8,00.0,38.4,31.7,31.5,0000.0,0010.42,0021.59,0009.26
2022-07-12 00:26:00,,0831.7,5.00,0.00,29.7,27.4,00.0,38.3,31.5,31.6,0000.0,0010.46,0022.60,0009.29
2022-07-12 00:27:00,,0831.7,4.99,0.00,29.7,27.3,00.0,38.3,31.4,31.6,0000.0,0010.49,0023.49,0009.31
2022-07-12 00:28:00,,0831.7,5.00,0.00,29.6,27.4,00.0,38.3,31.4,31.7,0000.6,0010.56,0023.19,0009.33
2022-07-12 00:29:00,,0831.8,4.99,0.00,29.6,27.6,00.0,38.3,31.4,31.8,0002.4,0010.59,0022.61,0009.36
2022-07-12 00:30:00,,0831.7,5.01,0.00,29.6,27.7,00.0,38.3,31.4,31.9,0002.1,0010.54,0021.66,0009.35
2022-07-12 00:31:00,,0831.7,5.00,0.00,29.6,27.9,00.0,38.3,31.5,31.8,0001.8,0010.57,0021.49,0009.37
2022-07-12 00:32:00,,0831.7,5.00,0.00,29.6,28.1,00.0,38.3,31.5,31.7,0001.5,0010.60,0021.20,0009.39
2022-07-12 00:33:00,,0831.7,5.00,0.00,29.6,28.3,00.0,38.3,31.6,31.7,0001.6,0010.66,0021.36,0009.41
2022-07-12 00:34:00,,0831.8,5.01,0.00,29.7,28.5,00.0,38.3,31.7,31.6,0001.2,0010.74,0020.57,0009.45
2022-07-12 00:35:00,,0831.7,5.00,0.00,29.7,28.6,00.0,38.4,31.7,31.6,0000.6,0010.76,0020.34,0009.47
2022-07-12 00:36:00,,0831.7,5.01,0.00,29.7,28.7,00.0,38.4,31.8,31.5,0000.0,0010.75,0020.17,0009.49
2022-07-12 00:37:00,,0831.7,4.99,0.00,29.8,28.8,00.0,38.4,31.8,31.4,0000.0,0010.76,0020.29,0009.51
2022-07-12 00:38:00,,0831.7,4.99,0.00,29.8,28.5,00.0,38.4,31.8,31.4,0000.0,0010.74,0019.85,0009.52
2022-07-12 00:39:00,,0831.7,5.00,0.00,29.8,27.8,00.0,38.4,31.6,31.5,0000.0,0010.70,0020.09,0009.54
2022-07-12 00:40:00,,0831.7,5.00,0.00,29.7,27.3,00.0,38.3,31.5,31.5,0000.0,0010.64,0019.68,0009.53
2022-07-12 00:41:00,,0831.7,5.00,0.00,29.7,27.3,00.0,38.3,31.4,31.7,0000.0,0010.61,0020.88,0009.50
2022-07-12 00:42:00,,0831.7,5.00,0.00,29.6,27.4,00.0,38.3,31.4,32.0,0000.0,0010.49,0021.97,0009.38
2022-07-12 00:43:00,,0831.7,4.99,0.00,29.6,27.6,00.0,38.3,31.4,32.1,0000.0,0010.37,0023.25,0009.24
2022-07-12 00:44:00,,0831.7,5.01,0.00,29.6,27.8,00.0,38.3,31.4,32.1,0000.0,0010.19,0023.38,0009.10
2022-07-12 00:45:00,,0831.7,5.00,0.00,29.6,28.0,00.0,38.3,31.5,32.0,0000.0,0010.03,0023.17,0008.93
2022-07-12 00:46:00,,0831.7,5.00,0.00,29.6,28.1,00.0,38.3,31.6,32.0,0000.0,0009.92,0023.20,0008.79
2022-07-12 00:47:00,,0831.7,5.00,0.00,29.6,28.3,00.0,38.4,31.6,32.0,0000.0,0009.77,0023.85,0008.62
2022-07-12 00:48:00,,0831.8,5.00,0.00,29.7,28.5,00.0,38.4,31.7,32.0,0000.0,0009.60,0022.80,0008.47
2022-07-12 00:49:00,,0831.8,5.00,0.00,29.7,28.6,00.0,38.4,31.7,32.0,0000.0,0009.50,0022.77,0008.33
2022-07-12 00:50:00,,0831.9,5.01,0.00,29.8,28.8,00.0,38.4,31.8,31.8,0000.0,0009.40,0022.61,0008.18
2022-07-12 00:51:00,,0831.9,5.00,0.00,29.8,28.8,00.0,38.4,31.8,31.7,0000.0,0009.35,0022.67,0008.07
2022-07-12 00:52:00,,0831.9,4.99,0.00,29.8,28.4,00.0,38.4,31.8,31.5,0000.0,0009.33,0021.57,0007.99
2022-07-12 00:53:00,,0831.9,5.00,0.00,29.8,27.7,00.0,38.4,31.6,31.7,0000.0,0009.33,0020.63,0007.99
2022-07-12 00:54:00,,0831.8,5.00,0.00,29.7,27.3,00.0,38.3,31.5,31.9,0000.0,0009.36,0020.13,0007.98
2022-07-12 00:55:00,,0831.8,5.01,0.00,29.6,27.3,00.0,38.4,31.4,31.9,0000.0,0009.39,0020.78,0007.99
2022-07-12 00:56:00,,0831.7,5.00,0.00,29.6,27.4,00.0,38.3,31.4,32.0,0000.0,0009.36,0021.03,0008.00
2022-07-12 00:57:00,,0831.8,4.99,0.00,29.6,27.6,00.0,38.3,31.4,31.9,0000.0,0009.39,0021.15,0008.01
2022-07-12 00:58:00,,0831.8,5.01,0.00,29.6,27.8,00.0,38.3,31.5,32.0,0000.0,0009.42,0021.18,0008.03
2022-07-12 00:59:00,,0831.9,5.00,0.00,29.6,28.0,00.0,38.3,31.5,31.9,0000.0,0009.43,0021.67,0008.04
